This demonstration page uses our WeatherBlox Daily Observations layout. Learn more.

Left ArrowRight Arrow

Hourly Observations for February 20, 2019

Temp ( °F °C ) Dew Point ( °F °C ) Humidity (%) Winds ( mph kmh ) Pressure ( in mb ) Visibility ( mi km ) Precip ( " mm )
12:53 am 00:53 Cloudy with Light Rain 41 5 39 3.9 93 93 E 10 17 30.27 1025 10 16 0.00 0.03
1:08 am 01:08 Cloudy with Light Rain 41 5 40 4.4 96 96 E 9 15 30.30 1026 7 11 0.00 0.03
1:53 am 01:53 Cloudy with Mist and Fog 41 5 40 4.4 96 96 E 7 11 30.28 1025 4 6 0.00 0.03
2:53 am 02:53 Cloudy with Light Rain 41 5 40 4.4 96 96 E 12 19 30.25 1024 4 6 0.01 0.25
3:53 am 03:53 Cloudy 40 4.4 39 3.9 97 97 E 13 20 30.24 1024 8 13 0.01 0.25
4:53 am 04:53 Cloudy with Mist and Fog 40 4.4 39 3.9 97 97 E 10 17 30.23 1024 5 8 0.01 0.25
5:53 am 05:53 Cloudy 39 3.9 39 3.9 100 100 E 9 15 30.21 1023 7 11 0.00 0.00
6:53 am 06:53 Cloudy with Mist and Fog 40 4.4 39 3.9 97 97 E 10 17 30.20 1023 3 5 0.00 0.00
7:03 am 07:03 Cloudy with Light Rain 40 4.4 39 3.9 97 97 E 8 13 30.22 1023 2 3 0.01 0.25
7:53 am 07:53 Cloudy with Mist and Fog 40 4.4 40 4.4 100 100 E 8 13 30.21 1023 2 3 0.01 0.25
8:53 am 08:53 Cloudy with Mist and Fog 41 5 40 4.4 96 96 E 13 20 30.19 1022 2 3 0.00 0.00
9:53 am 09:53 Cloudy with Mist and Fog 42 5.6 41 5 96 96 E 9 15 30.17 1022 4 6 0.00 0.00
10:53 am 10:53 Cloudy with Mist and Fog 42 5.6 42 5.6 100 100 E 8 13 30.16 1021 4 6 0.00 0.00
11:53 am 11:53 Cloudy with Mist and Fog 43 6.1 43 6.1 100 100 E 9 15 30.16 1021 4 6 0.00 0.00
12:23 pm 12:23 Cloudy with Mist and Fog 43 6.1 43 6.1 100 100 E 10 17 30.16 1021 2 3 0.00 0.00
12:53 pm 12:53 Cloudy with Mist and Fog 44 6.7 43 6.1 96 96 E 12 19 30.14 1021 3 5 0.00 0.00
1:53 pm 13:53 Cloudy with Mist and Fog 44 6.7 43 6.1 96 96 E 10 17 30.11 1020 3 5 0.00 0.00
2:53 pm 14:53 Cloudy with Mist and Fog 44 6.7 44 6.7 100 100 E 9 15 30.09 1019 5 8 0.00 0.00
3:16 pm 15:16 Cloudy with Mist and Fog 44 6.7 44 6.7 100 100 E 9 15 30.09 1019 5 8 0.00 0.00
3:53 pm 15:53 Cloudy with Mist and Fog 45 7.2 45 7.2 100 100 VRB 3 6 30.07 1018 5 8 0.00 0.00
4:31 pm 16:31 Cloudy with Mist and Fog 45 7.2 45 7.2 100 100 E 6 9 30.09 1019 2 3 0.00 0.00
4:42 pm 16:42 Cloudy with Mist and Fog 45 7.2 45 7.2 100 100 E 6 9 30.09 1019 2 3 0.00 0.00
4:53 pm 16:53 Cloudy with Mist and Fog 45 7.2 45 7.2 100 100 E 7 11 30.07 1018 2 3 0.00 0.00
5:18 pm 17:18 Cloudy with Nearby Thunderstorms 45 7.2 45 7.2 100 100 VRB 5 7 30.09 1019 2 3 0.00 0.00
5:53 pm 17:53 Cloudy with Light Rain 45 7.2 45 7.2 100 100 VRB 5 7 30.07 1018 5 8 0.09 2.29
6:00 pm 18:00 Cloudy with Nearby Thunderstorms 45 7.2 45 7.2 100 100 ENE 5 7 30.09 1019 9 14 0.00 0.03
6:15 pm 18:15 Cloudy with Light Rain 45 7.2 45 7.2 100 100 E 5 7 30.09 1019 10 16 0.00 0.03
6:29 pm 18:29 Cloudy with Strong Thunderstorms 45 7.2 45 7.2 100 100 E 7 11 30.07 1018 5 8 0.05 1.27
6:44 pm 18:44 Cloudy with Nearby Thunderstorms 45 7.2 45 7.2 100 100 VRB 5 7 30.07 1018 10 16 0.06 1.52
6:53 pm 18:53 Cloudy with Thunderstorms 45 7.2 44 6.7 97 97 VRB 7 11 30.03 1017 6 10 0.09 2.29
7:14 pm 19:14 Cloudy with Nearby Thunderstorms 45 7.2 44 6.7 97 97 ESE 6 9 30.08 1019 10 16 0.00 0.03
7:36 pm 19:36 Cloudy with Light Rain 45 7.2 45 7.2 100 100 NE 3 6 30.07 1018 8 13 0.06 1.52
7:53 pm 19:53 Cloudy with Light Rain 45 7.2 45 7.2 100 100 ENE 5 7 30.05 1018 10 16 0.06 1.52
7:58 pm 19:58 Cloudy with Thunderstorms 45 7.2 45 7.2 100 100 NE 6 9 30.08 1019 10 16 0.00 0.03
8:19 pm 20:19 Cloudy with Nearby Thunderstorms 45 7.2 45 7.2 100 100 ENE 6 9 30.08 1019 10 16 0.03 0.76
8:26 pm 20:26 Cloudy 45 7.2 45 7.2 100 100 ENE 5 7 30.08 1019 10 16 0.03 0.76
8:53 pm 20:53 Cloudy 45 7.2 45 7.2 100 100 NE 6 9 30.07 1018 10 16 0.03 0.76
8:58 pm 20:58 Cloudy with Nearby Thunderstorms 45 7.2 45 7.2 100 100 NE 8 13 30.08 1019 10 16 0.00 0.00
9:34 pm 21:34 Cloudy with Light Rain 44 6.7 44 6.7 100 100 ENE 8 13 30.09 1019 4 6 0.00 0.03
9:53 pm 21:53 Cloudy with Light Rain 44 6.7 44 6.7 100 100 ENE 7 11 30.09 1019 3 4 0.02 0.51
10:04 pm 22:04 Cloudy with Nearby Thunderstorms 44 6.7 44 6.7 100 100 NNW 6 9 30.13 1020 3 5 0.04 1.02
10:19 pm 22:19 Cloudy with Thunderstorms 44 6.7 44 6.7 100 100 NNE 5 7 30.13 1020 5 8 0.08 2.03
10:30 pm 22:30 Cloudy with Light Rain 44 6.7 44 6.7 100 100 NE 7 11 30.12 1020 6 10 0.09 2.29
10:53 pm 22:53 Cloudy with Light Rain 44 6.7 44 6.7 100 100 NNE 6 9 30.11 1020 10 16 0.10 2.54
11:15 pm 23:15 Cloudy with Nearby Thunderstorms 44 6.7 44 6.7 100 100 ENE 7 11 30.12 1020 7 11 0.06 1.52
11:45 pm 23:45 Cloudy with Light Rain 44 6.7 44 6.7 100 100 E 9 15 30.10 1019 10 16 0.09 2.29
11:53 pm 23:53 Cloudy with Light Rain 44 6.7 43 6.1 96 96 NNE 3 6 30.10 1019 10 16 0.09 2.29

Powered by AerisWeather